User: anonymous
Location: Columbia
(38.9520°N, 92.3340°W)
Time: 23:26:48
(UTC-05:00)
Language:

SJ-11-01 - Orbit

View from above orbital plane
View from above orbital plane
View from above satellite
View from above satellite

Ground track
Ground track

The orbit data is extracted from the following two-line orbital elements,

1 36088U 09061A   14204.84334491  .00000115  00000-0  33283-4 0  2238
2 36088 098.0332 252.0364 0010581 334.8828 025.1837 14.60086785250081
Epoch (UTC): 23 July 2014 20:14:25
Eccentricity: 0.0010581
inclination: 98.0332°
perigee height: 685 km
apogee height: 700 km
right ascension of ascending node: 252.0364°
argument of perigee: 334.8828°
revolutions per day: 14.60086785
mean anomaly at epoch: 25.1837°
orbit number at epoch: 25008

The dashed part of the orbit path shows where the satellite is in the earth's shadow,  

DLR